Retour au catalogue

STARLINK-34846

ActifCommunicationsVLEO
NORAD 66972·PAYLOAD·🇺🇸 United States

Lancé Dec 8, 2025 depuis Cape Canaveral Space Force Station

Loading…

Prochains Passages (prochaines 24 heures)

TLE

FraisSource: CelesTrak SupGP

Époque: Sep 15, 2026, 02:44 UTC

1 66972C 25288P   26258.11437500 -.00019106  00000+0 -69192-3 0  2585
2 66972  43.0023  33.5212 0001555 271.2030 292.8900 15.27592100    14

Suivez STARLINK-34846 en temps réel avec AllMySat

Download on the App Store